Tracking 32412 objects as of 6-Dec-2025
HD Live streaming from Space Station
objects crossing your sky now

TRANSIT 2A

Track TRANSIT 2A now!
10-day predictions
TRANSIT 2A is classified as:


NORAD ID: 45
Int'l Code: 1960-007A
Perigee: 597.0 km
Apogee: 962.3 km
Inclination: 66.7 °
Period: 100.3 minutes
Semi major axis: 7150 km
RCS: 0.4368 m2 (medium)
Launch date: June 22, 1960
Source: United States (US)
Launch site: AIR FORCE EASTERN TEST RANGE (AFETR)
Your satellite tracking list
Your tracking list is empty




NASA's NSSDC Master Catalog

Two Line Element Set (TLE):
1 00045U 60007A   25339.87199565  .00000572  00000-0  16235-3 0  9998
2 00045  66.6920 151.4957 0255386 299.4945  58.0901 14.35772716352290
Source of the keplerian elements: AFSPC